CAPE
0 0 0 0 0 0 0 0 0 0 0 0 0 0 0 0 0 0 0 0 0 0 0 0 0 0 0 0 11 217 854 780 407 313 997 1710 2290 2698 2833 2773 2858 2765 2556 2281 2281 2129 1907 1733 1551 1703 1917 2037 1986 1479 1359 1204 1474 1412 1105 1178 1098 1082 951 1022 774 804 1052 1108 1050 1101 1159 1268 1230 1080 1171 1142 1304 1457 1624 1608 1395 1219 1710 1652 1756 1627
0 1 0 0 0 0 0 0 0 0 0 0 0 0 0 0 0 0 0 0 0 0 0 0 0 0 0 0 28 193 421 628 706 706 1385 2135 2177 2315 2471 2661 2614 2725 2270 2407 2217 2010 1778 1577 1647 1768 1910 2081 2060 1551 1347 1267 1416 1366 1183 1355 1215 1160 1025 907 876 1112 1255 1417 1389 1294 1288 1428 1114 1149 1261 1235 1399 1505 1256 932 816 883 978 1364 1035 904
4 0 0 0 0 0 0 0 0 0 0 0 0 0 0 0 0 0 0 0 0 0 0 0 0 0 0 0 3 225 389 616 714 922 1355 1713 1635 1962 2265 2520 2679 2375 2180 2323 2123 1987 1775 1725 1933 2012 2033 2068 2032 1654 1242 1258 1350 1136 1369 1384 1300 1274 1073 991 1227 1527 1079 1279 1561 1475 1344 1530 1503 1388 1451 1053 970 829 766 838 875 785 760 707 715 862
15 0 0 0 0 0 0 0 0 0 0 0 0 0 0 0 0 0 0 0 0 0 0 0 0 0 0 0 0 105 216 529 635 727 942 1170 1690 1837 2182 2433 2581 2356 1990 2236 1929 1863 1804 1638 1968 2133 2149 2118 2106 1733 1255 1288 1359 1280 1363 1472 1330 1212 1201 1116 1148 780 977 1430 1439 1430 1775 1468 1254 896 910 861 804 729 688 767 631 578 659 645 702 695
0 0 0 0 0 0 0 0 0 0 0 0 0 0 0 0 0 0 0 0 0 0 0 0 0 0 0 0 0 10 90 312 748 1044 1233 1538 1664 1957 2188 2321 2475 2382 2080 2205 1912 1900 1863 1741 1876 2123 2213 2169 2138 1714 1163 1245 1377 1356 1274 1428 1296 1336 1245 1273 1167 917 1197 1461 1338 1175 962 753 754 706 703 706 717 692 573 496 514 570 602 649 691 686
0 0 1 0 0 0 0 0 0 0 0 0 0 0 0 0 0 0 0 0 0 0 0 0 0 0 0 0 0 0 3 123 533 886 1089 1313 1687 1917 2052 2140 2189 2178 1884 2076 1952 1917 1754 1684 1684 2020 2204 2233 2201 1958 1327 1138 1416 1639 1455 1584 1541 1318 1043 978 1096 1219 1264 1236 1163 831 688 691 887 772 609 635 593 583 496 517 552 517 557 516 451 283
0 2 3 0 0 0 0 0 0 0 0 0 0 0 0 0 0 0 0 0 0 0 0 0 0 0 0 0 0 0 0 29 365 638 743 1006 1581 1591 1864 2022 2173 2046 1887 1833 2012 1920 1814 1712 1494 1860 2092 2208 1943 1932 1594 1262 1270 1359 1545 1562 1259 1040 1016 942 996 1235 1322 1220 1167 893 814 1039 1312 1078 733 672 533 468 378 387 481 489 438 382 310 268
0 3 6 5 2 0 0 0 0 0 0 0 0 0 0 0 0 0 0 0 0 0 0 0 0 0 0 0 0 7 145 73 127 510 796 902 1179 1606 1784 1907 2136 2048 1881 1973 2021 1902 1587 1513 1476 1623 1897 1666 1585 1468 1403 1405 986 1360 1678 1178 1157 1253 1210 1136 965 1247 1222 1226 1430 1249 1037 1041 1218 746 601 568 516 398 488 425 376 407 409 317 319 254
0 0 7 3 4 1 0 0 0 0 0 0 0 0 0 0 0 0 0 0 0 0 0 0 0 0 0 0 0 8 76 8 11 229 642 743 984 1483 1755 1920 2086 1958 1824 1860 2030 1989 1788 1665 1490 1486 1750 1859 1569 1363 1212 1219 943 927 1358 1177 1120 1224 1224 1218 1244 1253 1263 1347 1406 1438 1112 760 758 582 529 421 343 408 483 447 398 349 348 315 278 237
0 0 8 4 3 1 0 0 0 0 0 0 0 0 0 0 0 0 0 0 0 0 0 0 0 0 0 0 0 0 0 1 0 102 440 662 1052 1417 1731 1975 2009 1977 1767 1737 2048 1912 1954 1867 1527 1395 1554 1921 1770 1572 1266 857 795 720 884 797 618 942 964 991 888 1222 1299 1209 1020 772 761 629 576 554 473 435 438 453 442 402 352 321 294 309 352 258
4 0 14 1 15 0 0 0 0 0 0 0 0 0 0 0 0 0 0 0 0 0 0 0 0 0 0 0 0 30 0 0 0 132 412 727 1195 1436 1731 1979 2077 1843 1796 1689 1776 1840 1851 1603 1638 1368 1381 1686 1857 1588 1327 1257 1259 1195 778 732 623 774 766 812 904 1221 942 833 938 854 629 525 497 480 447 441 468 503 459 416 290 247 258 267 210 23
6 1 12 7 1 2 3 4 0 0 0 0 0 0 0 0 0 0 0 0 0 0 0 0 0 0 0 0 0 126 1 0 1 188 356 623 949 1514 2106 2047 1960 1807 1811 1802 1844 1881 1803 1852 1717 1259 1325 1452 1664 1588 1560 1666 1398 1243 933 972 1077 1047 974 889 811 1176 773 632 721 534 468 436 476 508 514 516 500 545 501 256 159 221 276 277 118 20
3 8 5 5 3 1 0 6 1 0 0 0 0 0 0 0 0 0 0 0 0 0 0 0 0 0 0 0 0 34 73 0 2 132 287 492 962 1526 1889 2070 1946 1900 1850 1909 1890 1957 1888 1668 1530 1412 1432 1415 1494 1710 1773 1738 1379 1135 769 814 913 981 740 923 1001 694 718 662 489 438 357 407 399 519 476 508 516 513 489 343 239 204 162 82 3 42
18 0 5 4 9 1 22 22 6 0 0 0 0 0 0 0 0 0 0 0 0 0 0 0 0 0 0 0 0 24 97 0 0 3 65 704 1257 1418 1648 2051 2051 1924 1853 1951 1923 1921 1835 1870 1671 1445 1490 1451 1488 1768 1767 1648 1328 1034 930 570 765 959 853 715 901 697 870 661 646 534 565 525 469 540 508 440 524 552 411 329 264 159 38 41 77 22
1 1 24 8 6 4 18 9 0 0 0 0 0 0 0 0 0 0 0 0 0 0 0 0 0 0 0 0 0 11 115 0 3 35 191 524 1049 1368 1797 2041 2057 2000 1926 1976 1949 1985 1885 1958 1682 1442 1411 1327 1414 1488 1494 1561 1275 1034 805 825 820 857 844 658 644 746 916 665 836 717 609 531 501 534 438 511 508 383 254 300 206 130 83 19 11 62
0 0 0 6 4 2 8 1 0 0 0 0 0 0 0 4 0 0 0 0 0 0 0 0 0 0 0 2 0 0 1 0 0 0 24 386 466 1261 1929 2117 2154 2076 1844 1811 1922 1856 1870 1862 1716 1353 1438 1322 1252 1184 1452 1678 1367 1020 1201 1130 1041 896 750 628 886 784 774 773 629 345 642 617 458 458 424 489 401 329 245 190 126 58 71 80 80 118
0 20 0 0 8 4 2 1 0 0 0 0 0 0 0 0 0 0 0 1 0 0 0 0 0 0 0 0 12 0 0 0 1 1 1 72 832 1511 2088 2275 2300 2135 2035 1861 1919 1972 2053 1826 1815 1615 1518 1334 1276 1263 1514 1608 1206 1042 1193 1056 1009 851 514 862 949 776 828 702 405 409 559 540 515 513 496 452 356 286 211 172 142 174 172 128 89 127
0 22 2 4 1 12 6 6 2 0 0 0 0 0 0 1 0 0 0 0 0 0 0 0 0 0 0 0 14 6 0 0 154 262 113 646 1927 2155 2210 2310 2203 2133 2024 1846 1951 2040 1778 1865 1856 1622 1583 1538 1411 1446 1506 1367 1084 1032 1208 1120 1038 868 529 503 843 595 544 538 444 407 509 570 554 481 492 417 374 344 199 221 214 226 249 164 115 101
17 7 0 6 11 5 5 0 5 0 1 1 0 0 0 4 0 0 0 0 0 0 0 0 0 0 0 0 0 0 0 0 89 527 894 1541 1784 1846 1973 2132 2089 2226 2096 1843 1671 1856 1840 1838 1814 1600 1674 1512 1401 1493 1390 1176 1116 1164 1219 1070 967 619 546 555 611 676 519 514 471 398 410 520 452 495 476 396 368 369 292 258 66 177 250 164 8 0
2 9 4 9 2 0 0 0 5 0 0 0 0 0 0 0 0 0 0 0 0 0 0 0 0 0 0 0 0 0 0 3 2 166 588 1325 1752 1770 1982 2037 2121 2349 2177 1937 1794 1783 1798 1690 1634 1633 1604 1374 1404 1438 1304 1184 1284 1354 1238 927 824 579 630 745 594 589 563 500 493 378 0 377 434 479 442 360 291 42 212 333 371 337 243 141 0 0
5 83 0 2 2 0 0 0 3 0 0 0 0 0 0 0 0 0 0 0 0 0 0 0 0 0 0 0 0 0 0 0 0 147 605 1024 1511 1885 2036 2154 2272 2276 2197 2033 1820 1766 1702 1744 1616 1558 1550 1288 1282 1334 1270 1167 1324 1432 1222 1011 858 810 817 802 717 600 445 449 429 340 34 1 357 461 420 398 332 385 467 276 278 224 254 181 0 67
9 60 5 0 0 0 0 0 0 0 0 0 0 0 0 0 0 0 0 0 0 0 0 0 0 0 0 0 0 0 0 0 0 131 712 797 1116 1822 2171 2507 2434 2284 2210 2038 1763 1824 1777 1745 1557 1557 1310 1176 1188 1248 1119 1116 1361 1404 1234 1130 1015 922 855 819 783 696 419 430 425 314 2 1 15 436 340 278 300 293 212 145 276 327 288 137 0 0
84 29 5 0 0 0 1 0 0 0 0 0 0 0 0 0 0 0 0 0 0 0 0 0 0 0 590 0 0 0 0 0 0 0 215 600 843 1387 2150 2500 2422 2298 2114 1921 1773 1801 1749 1681 1404 1284 1160 1099 1137 1102 976 1132 1324 1293 1249 1132 1034 962 933 911 776 652 578 485 475 468 314 160 354 383 464 543 384 252 116 328 329 336 209 0 0 0
6 4 1 0 0 0 10 1 0 7 0 0 0 0 0 0 0 0 0 0 0 0 0 0 0 5 166 807 986 1172 1106 1322 1440 60 92 768 1074 1728 2255 2335 2339 2166 1947 1775 1693 1721 1781 1591 1435 1272 1077 984 953 971 920 1158 1270 1232 1230 1072 956 851 931 964 743 678 623 576 562 498 516 436 364 390 372 280 17 316 385 314 310 190 0 0 0 0
0 4 12 0 2 3 0 0 0 0 1 0 0 0 0 0 0 0 0 8 0 0 0 0 0 0 170 1207 534 175 211 307 696 1654 1978 2063 2190 2319 2414 2282 2068 1877 1788 1797 1798 1751 1644 1385 1350 1179 1017 906 922 953 975 1110 1116 1231 1151 989 869 748 741 832 702 535 526 636 607 481 53 201 0 122 135 241 452 406 340 198 124 66 0 0 0 0
12 17 23 6 6 18 1 0 0 0 0 0 0 0 0 0 0 0 0 4 0 0 0 0 0 77 230 204 47 206 150 206 182 489 1337 2087 2294 2276 2208 2040 1755 1775 1736 1856 1710 1721 1466 1192 1028 929 897 907 971 966 956 995 1134 1115 1055 957 816 829 804 665 644 585 557 635 476 585 609 530 194 0 222 412 306 0 185 187 135 0 0 0 0 0
121 175 152 4 0 0 0 0 0 0 0 0 0 0 0 0 0 0 0 0 0 0 0 0 0 15 189 214 194 301 451 617 900 1125 984 1314 1871 1972 2059 1855 1752 1620 1682 1777 1800 1788 1380 1115 1078 917 869 1001 1045 978 990 954 1030 1028 987 898 759 712 719 662 631 471 516 511 786 764 646 541 398 365 402 436 374 318 191 59 24 0 0 0 0 0
104 124 149 65 47 67 5 6 0 0 0 0 0 0 0 0 0 0 0 0 0 0 0 0 0 0 0 0 350 494 395 684 1359 1561 1352 1606 1832 1860 1818 1749 1549 1550 1638 1689 1676 1361 1176 1112 1191 985 1036 1008 1129 972 1014 1048 1077 1024 978 867 691 604 581 461 413 508 566 577 604 560 461 322 409 385 331 376 308 219 116 28 0 0 0 0 30 33
257 23 46 94 31 2 0 0 0 0 0 0 0 0 0 0 0 0 0 0 0 0 0 1 1 10 0 2 5 166 381 879 1285 1603 1595 1785 1828 1712 1658 1611 1577 1641 1663 1556 1591 1519 1139 1004 878 787 746 962 1056 1110 1081 1136 1048 1043 952 685 592 633 673 573 404 606 549 349 306 259 116 366 477 311 352 242 153 76 7 0 0 0 47 145 168 181
80 108 163 48 36 2 0 0 0 0 0 0 0 0 0 0 0 0 0 0 0 0 0 0 0 0 0 0 0 406 717 1049 1394 1608 1740 1776 1791 1578 1563 1427 1485 1620 1646 1509 1392 1175 1084 1025 937 831 785 990 1009 1062 1096 1135 1130 1088 861 608 514 718 641 580 413 403 366 320 224 274 348 472 473 315 154 42 3 0 0 0 0 0 188 215 209 202
46 6 0 30 1 0 11 0 0 0 0 0 0 0 0 0 0 0 0 0 0 0 0 0 0 0 0 520 688 1175 1302 1403 1414 1379 1612 1588 1561 1536 1304 1412 1428 1581 1673 1484 1150 1010 976 892 790 833 945 1016 1008 1037 1086 1170 1157 1077 688 554 656 729 673 518 354 253 188 358 363 358 431 459 416 313 0 0 0 0 0 0 0 0 0 0 0 182
0 5 8 39 1 2 11 0 0 0 0 0 0 0 0 0 0 0 0 0 0 0 0 0 0 0 288 572 1248 1404 1199 1420 1438 1470 1524 1524 1489 1283 1464 1422 1448 1474 1689 1509 1166 1042 990 1011 785 802 1089 1170 1092 1024 1094 1140 1092 890 636 589 670 700 612 379 310 358 464 479 470 374 404 403 348 275 0 0 0 0 0 0 0 0 0 0 0 181
40 111 1 5 7 46 50 0 0 0 0 0 0 0 0 0 0 0 0 0 0 0 0 0 0 0 767 588 771 1610 1289 1295 1376 1532 1468 1299 1413 1418 1482 1491 1295 1425 1555 1547 1338 1071 1065 1056 907 787 939 1195 1163 1008 1059 1005 937 741 615 535 680 591 520 400 450 444 486 501 443 393 433 382 334 246 135 0 53 258 266 30 0 0 0 80 179 174
0 13 9 32 20 31 59 12 0 0 0 0 0 0 0 0 0 0 0 0 0 0 0 0 0 342 747 970 277 1404 1421 1377 1562 1495 1405 1475 1560 1420 1270 1316 1287 1232 1278 1246 1186 1242 1089 1008 1029 925 890 962 1029 931 982 963 873 716 572 434 411 438 364 368 441 478 464 424 389 447 437 428 355 282 259 212 0 0 0 0 0 0 0 79 219 151
3 0 0 4 0 0 7 2 0 0 0 275 9 37 0 0 0 0 0 0 0 0 0 0 0 2 749 243 966 1747 1753 1663 1635 1534 1427 1395 1519 1523 1527 1491 1285 1374 1350 1390 1237 1119 948 962 772 814 937 1109 1104 889 810 800 783 811 666 457 320 283 274 251 314 368 320 356 423 492 498 486 409 361 297 272 0 0 0 0 0 0 155 230 205 151
3 2 0 0 0 0 0 0 0 0 210 146 52 21 45 0 0 0 0 0 0 0 0 0 0 0 633 727 1024 1525 1480 1674 1510 1590 1481 1433 1576 1708 1676 1563 1493 1479 1429 1360 1297 1204 1075 967 733 805 852 796 799 783 738 595 621 646 558 433 383 329 316 343 334 307 321 332 366 252 451 437 455 387 368 320 255 22 42 77 284 226 186 237 70 23
0 2 11 38 0 3 0 0 22 235 241 42 0 0 0 0 0 0 0 0 0 0 0 0 0 109 804 1148 1272 1358 1482 1340 1613 1681 1599 1627 1546 1725 1660 1554 1474 1490 1411 1326 1446 1379 1181 970 845 750 822 856 788 697 742 663 529 516 439 470 576 502 420 427 443 423 431 407 388 294 136 157 132 96 255 112 62 66 62 316 310 265 162 11 10 12
3 2 57 27 0 0 0 0 0 4 0 108 195 4 70 236 282 0 0 0 0 0 13 12 4 141 962 1028 1237 1429 1487 1695 1737 2010 1700 1754 1578 1740 1429 1682 1648 1397 1384 1531 1321 1447 1144 908 626 645 632 636 543 485 533 606 503 496 503 606 593 466 400 443 468 506 490 536 478 415 146 144 155 140 122 110 101 87 73 57 83 50 10 15 23 29
8 16 20 1 1 0 0 0 0 0 66 282 260 74 205 147 128 261 0 0 171 213 161 73 44 303 907 984 1303 1391 1794 1719 1338 1914 1812 1729 1668 1596 1662 1527 1562 1517 1412 1473 1461 1260 884 656 517 596 622 610 565 590 610 571 471 499 504 625 594 415 375 316 308 300 280 297 398 440 351 292 128 129 118 111 122 130 115 106 97 45 0 0 0 33
79 13 66 60 4 0 0 0 0 56 107 356 364 291 88 379 281 111 0 0 522 599 400 364 336 781 973 989 1331 1728 1804 796 1116 1908 1875 1751 1786 1482 1781 1604 1635 1583 1505 1303 1411 1189 1139 726 504 509 556 612 684 710 761 698 521 505 518 518 447 430 452 372 375 330 249 70 80 214 254 295 275 92 107 106 133 150 148 150 116 71 29 6 6 0
1 17 17 3 0 0 61 7 40 165 242 389 360 224 55 0 172 0 0 219 523 792 620 646 659 1144 1344 1603 1763 2086 1844 1972 1405 1464 1683 1797 1716 1832 1678 1728 1753 1714 1605 1459 1350 1052 852 718 692 637 617 694 646 771 808 766 594 490 471 436 450 508 539 532 512 425 365 297 249 224 293 309 284 240 216 228 104 175 144 135 104 78 47 48 25 0
64 19 8 4 1 0 50 4 96 185 93 358 394 43 30 33 0 11 449 284 706 956 930 612 855 1206 1478 1976 1934 2359 2115 1414 1742 1730 1854 1760 1638 1824 1763 1797 1677 1457 1371 1342 1232 996 860 890 829 829 789 527 466 593 592 592 522 484 515 470 398 405 412 428 374 335 267 257 238 262 302 345 360 346 297 219 8 69 82 84 65 54 62 68 36 0
7 10 24 8 0 4 41 37 39 104 418 500 551 25 51 436 436 425 752 1285 864 1044 1100 738 895 1121 1511 2028 2220 2334 1942 1832 1906 1894 1849 1838 1760 1721 1629 1718 1753 1524 1673 1526 1162 1028 848 1018 990 966 892 569 474 514 440 396 471 532 554 504 436 354 304 325 320 316 308 345 263 192 59 203 222 255 293 286 147 2 41 87 90 86 56 35 30 0
0 5 2 1 0 0 18 12 56 290 519 550 651 394 1007 925 735 930 897 1232 1331 1218 1282 1037 944 1171 1479 2255 2016 1770 1830 2098 1944 1870 1851 1856 1876 1792 1583 1764 1688 1424 1372 1568 1212 1178 865 905 1049 837 790 533 585 566 481 423 488 528 538 560 393 345 366 365 357 299 257 217 234 212 171 100 142 292 260 162 115 0 70 103 117 80 24 0 0 0
0 0 15 0 0 0 0 43 338 478 534 609 670 858 935 967 975 921 1128 1307 1377 1182 1046 1276 1081 1173 1336 2066 1960 1770 1708 2087 2113 1748 1922 1844 1802 1778 1784 1787 1764 1486 1471 1362 1127 942 1010 1069 829 790 649 596 562 678 585 504 464 482 557 463 418 463 440 421 397 313 186 200 279 278 270 225 168 138 0 1 14 54 102 92 63 53 15 0 0 0
24 1 8 13 57 134 134 133 454 564 794 689 727 650 809 1114 1062 1139 1284 1331 1138 1192 1054 1290 1143 1064 1328 1902 1988 1753 1805 1789 2122 1978 1652 1808 1612 1632 1692 1757 1526 1544 1326 1153 1091 931 890 802 881 718 647 487 644 708 652 619 590 561 526 511 535 511 511 502 438 376 240 261 329 315 234 155 39 19 35 15 2 23 50 58 49 57 39 0 0 0
28 6 166 131 192 141 281 481 644 572 676 879 833 843 1015 1048 1092 1160 1300 1091 1004 1044 1189 996 998 930 1254 1723 1966 1858 1772 1565 1952 2090 1967 1702 1722 1718 1787 1754 1746 1628 1474 1362 1160 886 995 1041 835 646 592 606 647 788 720 714 693 640 649 542 520 516 468 406 337 275 236 207 294 320 260 14 40 66 33 0 0 2 45 72 44 54 56 11 7 0
376 10 174 327 249 43 294 767 739 627 457 435 695 710 874 915 1093 1173 1087 1160 1084 990 1066 1178 1249 975 1077 1597 1699 1647 1602 1612 1740 2002 1932 1751 1558 1559 1599 1714 1726 1600 1470 1311 1102 925 1047 969 999 657 661 717 767 802 771 721 725 705 631 608 607 567 466 394 327 288 145 34 35 39 45 12 34 58 56 71 128 49 3 29 40 43 17 14 5 1
129 54 204 441 335 236 301 553 683 762 798 820 857 771 770 757 865 1237 1296 1315 1269 1300 1240 1081 1317 1415 1368 1318 1528 1523 1505 1513 1784 1840 1889 1730 1512 1383 1433 1435 1420 1620 1446 1211 973 998 901 811 764 803 807 959 849 795 790 716 689 521 532 480 438 434 396 351 257 223 237 132 6 24 31 34 42 57 29 0 4 48 7 0 14 10 9 6 0 0
373 358 409 220 195 84 551 1004 683 516 482 647 506 421 495 848 1027 1226 1074 1049 1076 1170 1355 1258 1009 1100 1181 1365 1480 1548 1514 1328 1405 1720 1687 1734 1634 1414 1522 1294 1320 1422 1358 1255 1030 1087 963 810 888 978 927 855 859 791 765 648 463 227 490 437 376 292 262 204 187 136 202 182 129 0 44 11 57 56 21 106 47 59 52 19 12 16 15 8 0 0
78 606 500 355 51 92 359 760 463 550 580 730 432 409 480 853 1166 1168 1105 1086 1010 1017 1081 1178 1237 1214 1034 921 997 1269 1404 1378 1285 1407 1515 1418 1422 1223 1314 1066 1108 1242 1422 1178 1321 1181 1115 1092 1137 1126 1014 913 815 769 687 595 565 516 449 386 310 229 182 188 216 206 188 165 74 35 14 0 8 50 68 88 23 29 16 10 14 0 12 2 0 0
Wind_Speed
nan nan nan nan nan nan nan nan nan nan nan nan nan nan nan nan nan nan nan nan nan nan nan nan nan nan nan nan nan 35 34 30 28 26 29 31 31 30 27 22 22 24 27 29 28 24 21 20 17 16 16 17 21 22 22 22 22 23 23 23 24 24 25 26 25 24 23 23 22 22 22 23 25 27 27 26 24 23 25 26 28 26 24 24 25 26
nan nan nan nan nan nan nan nan nan nan nan nan nan nan nan nan nan nan nan nan nan nan nan nan nan nan nan nan nan 37 35 30 29 27 26 26 26 25 21 19 20 25 27 28 24 21 19 18 17 18 18 19 21 22 22 22 23 22 23 22 24 25 26 25 25 23 22 22 20 21 21 22 23 25 25 24 23 25 29 30 29 26 25 25 27 28
nan nan nan nan nan nan nan nan nan nan nan nan nan nan nan nan nan nan nan nan nan nan nan nan nan nan nan nan nan 33 33 32 29 27 23 23 23 23 20 19 22 24 24 21 21 18 16 16 17 19 20 20 20 21 21 22 22 22 21 22 24 25 25 24 24 23 21 20 19 19 22 23 24 23 24 25 27 28 29 28 28 27 28 27 26 27
nan nan nan nan nan nan nan nan nan nan nan nan nan nan nan nan nan nan nan nan nan nan nan nan nan nan nan nan nan 31 32 33 30 27 25 26 25 22 20 21 23 22 21 19 18 16 15 14 16 19 21 20 21 21 20 20 21 20 20 24 25 25 24 23 23 21 18 18 20 22 25 24 24 25 28 28 26 26 28 28 28 28 30 28 27 30
nan nan nan nan nan nan nan nan nan nan nan nan nan nan nan nan nan nan nan nan nan nan nan nan nan nan nan nan nan nan nan 35 33 31 30 29 28 26 25 25 25 21 19 18 15 15 15 15 16 19 20 20 19 19 18 19 19 21 23 25 24 24 23 23 22 20 20 23 25 28 29 28 28 27 27 28 27 26 26 29 29 28 29 28 27 27
nan nan nan nan nan nan nan nan nan nan nan nan nan nan nan nan nan nan nan nan nan nan nan nan nan nan nan nan nan nan nan 34 35 32 30 29 28 27 26 24 23 21 16 16 13 15 14 15 18 19 20 20 20 18 18 18 20 23 23 24 25 24 24 24 23 23 25 26 27 27 24 23 23 25 24 24 26 26 26 27 28 28 29 29 27 25
nan nan nan nan nan nan nan nan nan nan nan nan nan nan nan nan nan nan nan nan nan nan nan nan nan nan nan nan nan nan nan nan 35 32 31 30 29 28 28 25 23 19 14 12 13 17 14 15 17 19 20 20 22 25 22 20 23 21 20 25 26 25 23 21 22 26 26 25 24 23 21 21 22 24 25 27 28 28 29 28 30 30 31 32 31 28
nan nan nan nan nan nan nan nan nan nan nan nan nan nan nan nan nan nan nan nan nan nan nan nan nan nan nan nan nan nan 33 nan 31 30 30 31 30 30 27 23 20 15 11 12 13 17 13 15 17 20 21 26 30 25 22 25 25 16 22 27 28 25 23 23 24 26 24 23 23 22 20 20 20 26 29 28 28 30 30 29 30 31 33 33 31 30
nan nan nan nan nan nan nan nan nan nan nan nan nan nan nan nan nan nan nan nan nan nan nan nan nan nan nan nan nan nan nan nan nan 28 30 32 32 29 24 20 16 12 12 14 15 14 13 15 18 22 24 27 24 22 23 25 25 21 26 31 27 23 24 24 25 25 24 23 23 22 22 23 25 29 31 29 29 31 30 30 30 31 34 34 32 30
nan nan nan nan nan nan nan nan nan nan nan nan nan nan nan nan nan nan nan nan nan nan nan nan nan nan nan nan nan nan nan nan nan 30 31 32 29 24 21 18 15 14 14 15 14 13 15 17 20 21 22 21 21 20 22 24 24 30 33 26 21 24 24 24 23 23 23 22 24 23 23 24 26 29 31 30 29 31 30 31 30 31 33 32 30 28
nan nan nan nan nan nan nan nan nan nan nan nan nan nan nan nan nan nan nan nan nan nan nan nan nan nan nan nan nan nan nan nan nan 35 32 29 26 23 21 17 15 13 14 15 14 14 16 19 20 23 21 20 20 19 21 22 24 30 31 27 22 25 28 25 23 23 23 24 23 22 24 27 29 30 31 31 31 31 29 29 29 29 30 29 29 nan
nan nan nan nan nan nan nan nan nan nan nan nan nan nan nan nan nan nan nan nan nan nan nan nan nan nan nan nan nan 35 nan nan nan 27 25 24 23 23 21 17 13 13 15 16 17 16 17 20 21 20 19 19 19 18 18 22 25 30 31 29 24 26 27 24 24 25 26 23 21 18 24 28 29 30 30 31 30 28 27 26 28 27 27 27 27 nan
nan nan nan nan nan nan nan nan nan nan nan nan nan nan nan nan nan nan nan nan nan nan nan nan nan nan nan nan nan nan nan nan nan 27 25 23 23 21 19 15 14 15 18 19 19 20 20 19 17 18 19 19 20 19 20 24 27 32 34 26 23 26 26 23 22 24 24 21 22 20 22 25 27 27 29 29 28 26 24 24 27 26 27 nan nan nan
nan nan nan nan nan nan nan nan nan nan nan nan nan nan nan nan nan nan nan nan nan nan nan nan nan nan nan nan nan nan nan nan nan nan nan 23 21 20 18 17 17 19 21 21 20 20 17 17 17 17 20 20 20 19 21 26 29 34 32 26 24 26 26 24 22 22 25 23 23 23 22 25 27 27 26 25 24 23 22 22 24 25 nan nan nan nan
nan nan nan nan nan nan nan nan nan nan nan nan nan nan nan nan nan nan nan nan nan nan nan nan nan nan nan nan nan nan 27 nan nan nan 24 22 22 24 24 22 22 22 22 21 20 19 16 17 17 19 21 22 22 22 24 27 31 35 33 27 24 28 30 28 26 24 23 23 25 24 23 24 25 26 24 23 21 21 20 21 24 26 nan nan nan nan
nan nan nan nan nan nan nan nan nan nan nan nan nan nan nan nan nan nan nan nan nan nan nan nan nan nan nan nan nan nan nan nan nan nan nan 26 27 28 28 25 23 23 22 20 20 18 18 19 19 20 22 22 23 24 26 29 31 33 32 28 27 29 28 28 29 27 25 26 27 25 24 25 25 23 24 23 21 22 21 22 24 nan nan nan nan 19
nan nan nan nan nan nan nan nan nan nan nan nan nan nan nan nan nan nan nan nan nan nan nan nan nan nan nan nan nan nan nan nan nan nan nan nan 30 28 28 27 26 26 24 22 20 19 19 18 17 19 20 23 26 26 28 29 31 33 33 31 30 29 27 28 30 28 27 29 28 25 25 26 25 24 23 20 21 23 23 23 24 23 22 21 nan 17
nan nan nan nan nan nan nan nan nan nan nan nan nan nan nan nan nan nan nan nan nan nan nan nan nan nan nan nan nan nan nan nan 29 30 28 29 29 28 29 28 27 26 23 22 21 19 17 17 17 19 22 26 28 28 30 30 31 34 34 31 32 29 28 28 30 28 28 29 27 27 26 24 23 22 19 16 17 18 18 18 19 19 18 17 16 17
nan nan nan nan nan nan nan nan nan nan nan nan nan nan nan nan nan nan nan nan nan nan nan nan nan nan nan nan nan nan nan nan nan 28 28 27 27 27 28 26 26 26 27 25 20 17 17 17 17 20 24 27 29 30 30 31 32 34 33 33 31 29 27 29 27 27 27 28 25 24 25 25 23 18 15 15 14 13 14 16 nan 18 17 16 nan nan
nan nan nan nan nan nan nan nan nan nan nan nan nan nan nan nan nan nan nan nan nan nan nan nan nan nan nan nan nan nan nan nan nan 25 25 26 24 25 27 27 26 27 25 23 20 17 14 15 18 22 26 28 30 30 30 30 29 32 32 32 29 30 30 29 27 29 28 26 25 24 nan 22 19 16 15 16 16 nan 16 17 19 18 17 15 nan nan
nan nan nan nan nan nan nan nan nan nan nan nan nan nan nan nan nan nan nan nan nan nan nan nan nan nan nan nan nan nan nan nan nan 25 26 24 23 24 26 27 27 25 23 22 20 16 14 18 21 23 25 27 30 30 29 29 29 29 30 29 31 32 30 27 28 28 26 24 25 26 nan nan 19 19 19 21 22 21 18 18 18 16 16 15 nan nan
nan nan nan nan nan nan nan nan nan nan nan nan nan nan nan nan nan nan nan nan nan nan nan nan nan nan nan nan nan nan nan nan nan 22 23 21 21 25 27 26 25 24 23 22 19 16 17 20 22 25 26 28 30 30 30 30 30 29 28 28 30 31 29 27 25 24 24 21 21 23 nan nan nan 22 23 23 22 20 18 17 16 15 16 16 nan nan
nan nan nan nan nan nan nan nan nan nan nan nan nan nan nan nan nan nan nan nan nan nan nan nan nan nan 43 nan nan nan nan nan nan nan 20 22 23 27 28 27 26 25 25 22 17 17 19 22 23 24 27 30 32 33 33 31 31 29 28 28 29 29 29 26 23 21 20 18 19 21 21 21 22 23 23 23 21 20 18 16 15 16 17 nan nan nan
nan nan nan nan nan nan nan nan nan nan nan nan nan nan nan nan nan nan nan nan nan nan nan nan nan nan 34 36 36 36 36 37 34 nan nan 31 32 31 30 29 28 27 26 22 18 19 23 24 26 27 30 33 35 35 36 34 32 30 28 27 27 29 29 27 23 20 19 19 18 19 20 21 22 22 21 21 nan 19 17 16 17 17 nan nan nan nan
nan nan nan nan nan nan nan nan nan nan nan nan nan nan nan nan nan nan nan nan nan nan nan nan nan nan 35 30 30 31 30 27 28 32 33 33 34 33 31 30 29 28 26 21 18 20 26 28 29 30 33 36 37 37 36 35 34 32 29 27 27 28 28 27 24 22 20 21 21 19 nan 20 nan 21 20 19 18 19 19 19 19 nan nan nan nan nan
nan nan nan nan nan nan nan nan nan nan nan nan nan nan nan nan nan nan nan nan nan nan nan nan nan nan 35 30 nan 27 26 24 26 27 29 32 32 32 32 31 29 27 23 19 20 23 28 30 32 34 36 37 37 37 36 35 34 32 29 28 27 28 29 27 25 23 23 23 22 20 20 19 19 nan 19 19 20 nan 19 20 20 nan nan nan nan nan
30 21 22 nan nan nan nan nan nan nan nan nan nan nan nan nan nan nan nan nan nan nan nan nan nan nan 25 25 22 21 24 25 25 26 25 26 27 29 30 29 28 24 21 20 23 28 31 32 34 36 37 37 37 37 35 34 34 32 30 29 27 27 28 27 25 23 23 23 22 20 19 18 18 19 19 18 19 19 20 nan nan nan nan nan nan nan
28 22 18 nan nan nan nan nan nan nan nan nan nan nan nan nan nan nan nan nan nan nan nan nan nan nan nan nan 23 20 22 25 26 25 24 24 25 26 26 26 24 21 20 22 25 27 30 31 32 32 33 33 32 32 32 31 31 30 30 28 27 27 27 26 25 24 23 23 21 21 21 19 19 20 19 19 20 20 20 nan nan nan nan nan nan nan
25 nan nan nan nan nan nan nan nan nan nan nan nan nan nan nan nan nan nan nan nan nan nan nan nan nan nan nan nan 24 26 26 24 22 22 23 25 26 25 22 18 15 16 20 23 24 26 27 25 26 26 25 26 26 26 27 27 27 27 27 27 27 27 26 26 25 23 22 22 23 23 21 20 20 20 21 21 nan nan nan nan nan nan 26 27 27
nan 21 25 nan nan nan nan nan nan nan nan nan nan nan nan nan nan nan nan nan nan nan nan nan nan nan nan nan nan 26 28 27 26 25 24 24 22 22 20 17 14 14 16 19 21 21 22 21 22 22 21 21 22 22 23 24 24 24 25 26 26 25 26 26 26 26 23 23 24 24 23 22 21 20 21 nan nan nan nan nan nan nan 26 27 28 29
nan nan nan nan nan nan nan nan nan nan nan nan nan nan nan nan nan nan nan nan nan nan nan nan nan nan nan 27 26 26 27 27 26 23 23 23 22 20 17 14 14 15 17 20 20 18 17 18 20 20 19 20 21 22 22 23 23 24 25 27 26 26 26 26 26 26 26 26 25 24 24 23 22 22 nan nan nan nan nan nan nan nan nan nan nan 31
nan nan nan nan nan nan nan nan nan nan nan nan nan nan nan nan nan nan nan nan nan nan nan nan nan nan 26 27 26 27 27 26 25 24 24 24 21 18 14 13 13 15 18 19 17 16 16 17 17 16 16 17 18 19 20 21 21 22 24 25 25 26 26 26 26 26 26 25 24 24 24 23 23 23 nan nan nan nan nan nan nan nan nan nan nan 31
nan 26 nan nan nan nan nan nan nan nan nan nan nan nan nan nan nan nan nan nan nan nan nan nan nan nan 33 31 31 28 28 28 28 26 25 24 20 17 14 14 15 14 16 15 13 13 14 14 13 14 14 14 15 16 17 19 20 20 22 23 25 25 26 26 26 26 26 25 24 24 24 24 24 24 23 nan nan 24 24 nan nan nan nan nan 30 32
nan nan nan nan nan nan nan nan nan nan nan nan nan nan nan nan nan nan nan nan nan nan nan nan nan 31 33 33 36 34 31 30 29 26 25 24 22 20 19 18 15 14 14 11 9 10 12 13 14 14 15 16 17 19 20 21 23 23 23 25 26 26 26 27 26 26 26 25 24 24 25 25 25 24 24 24 nan nan nan nan nan nan nan nan 33 34
nan nan nan nan nan nan nan nan nan nan nan 35 nan nan nan nan nan nan nan nan nan nan nan nan nan nan 35 35 35 35 34 32 29 26 23 23 22 20 18 15 13 13 13 12 9 10 11 13 15 18 19 20 21 21 24 24 25 27 27 28 27 26 28 28 28 27 26 25 25 24 24 25 25 25 25 26 nan nan nan nan nan nan 30 31 33 36
nan nan nan nan nan nan nan nan nan nan 28 27 nan nan nan nan nan nan nan nan nan nan nan nan nan nan 35 33 32 32 30 30 29 27 23 22 21 19 15 13 13 15 15 14 14 16 18 19 21 23 24 24 26 26 26 27 28 31 31 29 29 28 28 28 28 27 26 25 25 24 25 25 25 26 26 28 28 nan nan nan 29 30 31 33 nan nan
nan nan nan nan nan nan nan nan nan 19 19 nan nan nan nan nan nan nan nan nan nan nan nan nan nan 34 33 32 31 30 29 29 28 26 23 22 20 18 17 17 17 17 19 20 19 20 23 25 25 27 28 29 29 29 27 29 31 32 32 30 28 27 27 27 27 27 27 27 26 26 27 27 28 nan 29 30 nan nan nan 30 32 32 32 nan nan nan
nan nan nan nan nan nan nan nan nan nan nan 22 29 nan nan 32 26 nan nan nan nan nan nan nan nan 32 31 30 29 29 28 28 28 27 23 22 20 19 18 19 19 18 20 21 22 25 28 27 27 29 31 31 29 27 30 31 33 34 32 29 27 26 25 25 25 26 27 27 28 28 29 30 31 31 31 31 31 nan nan nan nan nan nan nan nan nan
nan nan nan nan nan nan nan nan nan nan nan 24 25 nan 26 27 24 26 nan nan 22 25 28 nan nan 30 30 27 27 27 27 30 34 32 26 22 19 19 20 21 20 20 19 21 21 25 29 26 27 29 30 30 29 30 33 32 32 32 31 29 27 26 26 25 26 27 28 29 29 28 30 31 31 31 31 32 32 33 35 35 nan nan nan nan nan nan
nan nan nan nan nan nan nan nan nan nan 20 22 24 25 nan 22 23 19 nan nan 25 26 33 29 28 29 29 28 26 24 25 29 29 35 29 20 18 19 20 21 22 20 19 21 22 23 25 27 27 26 25 26 28 30 31 31 29 28 28 26 25 25 25 25 26 28 29 nan nan 29 30 31 32 nan 33 34 35 35 36 35 35 nan nan nan nan nan
nan nan nan nan nan nan nan nan nan 19 21 24 25 25 nan nan 20 nan nan 23 25 27 33 34 32 30 28 27 25 25 27 37 34 30 25 19 18 20 22 24 24 23 23 24 26 27 27 26 24 21 19 18 22 24 24 24 24 24 23 23 22 21 22 24 27 29 30 30 30 31 31 31 32 34 34 35 37 36 36 36 36 nan nan nan nan nan
nan nan nan nan nan nan nan nan nan 21 nan 23 23 nan nan nan nan nan 27 24 24 25 28 33 34 32 30 29 28 31 35 37 36 30 24 20 21 25 26 26 26 25 26 27 33 30 27 25 22 19 18 19 20 22 22 22 22 21 21 21 20 21 23 26 28 30 32 32 31 32 32 33 33 35 36 38 nan nan nan nan nan nan nan nan nan nan
nan nan nan nan nan nan nan nan nan 18 22 26 26 nan nan 27 29 31 27 25 25 24 23 25 29 30 29 29 29 30 32 35 34 31 28 26 26 26 25 25 24 24 27 30 31 25 24 23 22 20 19 20 22 24 25 26 26 25 25 22 22 24 26 28 30 32 33 34 35 36 nan 35 36 36 37 40 41 nan nan nan nan nan nan nan nan nan
nan nan nan nan nan nan nan nan nan 22 27 28 27 22 27 30 30 30 29 27 29 27 26 23 23 25 24 27 29 31 31 32 32 30 30 29 28 28 26 24 23 23 26 29 27 24 23 24 24 24 24 24 25 27 28 29 30 30 29 27 27 29 31 32 33 35 36 38 38 38 38 nan 38 38 40 42 42 nan nan 40 39 nan nan nan nan nan
nan nan nan nan nan nan nan nan 22 24 25 26 25 26 27 28 28 29 31 31 31 30 29 27 27 24 24 26 29 30 32 33 32 29 28 29 28 27 25 23 21 23 27 28 25 25 23 26 27 27 26 27 28 30 31 31 32 33 32 31 33 36 37 37 38 39 40 40 40 39 39 40 40 41 nan nan nan nan 39 nan nan nan nan nan nan nan
nan nan nan nan nan 20 18 21 19 19 24 26 25 25 25 27 28 29 32 33 33 31 31 30 30 28 26 27 28 28 32 34 32 30 29 28 27 27 26 23 22 23 25 26 25 25 24 29 28 29 30 30 31 33 34 33 33 34 33 37 36 37 38 40 42 43 44 44 42 42 44 44 nan nan nan nan nan nan nan nan nan nan nan nan nan nan
nan nan 7 12 20 19 17 17 17 19 20 23 25 25 23 25 28 29 30 32 32 31 31 32 31 30 28 28 29 29 31 32 33 32 30 29 28 26 24 23 24 24 26 26 29 29 28 31 32 33 34 34 36 38 38 35 33 34 35 35 36 38 42 44 45 46 46 47 47 48 49 nan nan nan nan nan nan nan nan nan nan nan nan nan nan nan
4 nan 9 9 13 nan 17 17 17 17 18 19 22 27 29 28 27 27 28 28 28 29 30 30 29 30 29 28 30 30 30 31 32 33 31 30 29 27 25 26 26 26 28 28 33 31 34 35 37 38 38 39 41 41 39 36 35 36 35 38 38 41 45 47 47 47 47 nan nan nan nan nan nan nan nan nan 39 nan nan nan nan nan nan nan nan nan
6 nan 10 12 12 14 14 12 14 14 14 18 22 25 27 26 24 27 28 29 30 31 31 32 33 32 31 31 31 31 31 32 33 34 34 34 33 31 30 31 30 31 32 32 34 32 36 38 40 41 42 43 43 41 38 37 37 40 42 43 44 46 47 47 48 48 50 50 nan nan nan nan nan nan nan nan nan nan nan nan nan nan nan nan nan nan
4 5 9 10 12 nan 16 14 13 13 15 17 20 24 28 28 24 27 29 31 32 33 33 33 34 34 33 33 31 30 31 31 33 33 34 35 35 35 34 35 34 33 35 36 36 35 38 38 40 42 43 43 41 39 39 39 39 41 42 45 46 47 47 49 48 48 48 47 46 nan nan nan nan nan nan 37 nan nan nan nan nan nan nan nan nan nan
nan 9 9 11 nan nan 21 21 22 18 19 21 19 21 25 27 26 27 28 30 30 31 34 34 34 34 35 34 33 32 32 32 32 32 33 34 35 35 34 35 34 34 37 37 35 35 38 38 39 41 42 42 41 42 43 43 44 45 45 46 47 47 48 48 46 43 41 42 nan nan nan nan nan nan nan nan nan nan nan nan nan nan nan nan nan nan
Wind_Direction
nan nan nan nan nan nan nan nan nan nan nan nan nan nan nan nan nan nan nan nan nan nan nan nan nan nan nan nan nan 243 243 242 244 244 242 243 245 249 253 256 254 253 254 253 252 252 251 249 246 245 246 243 247 247 252 255 260 265 268 270 274 272 273 270 272 273 279 281 280 278 278 276 272 267 263 261 264 266 264 264 262 258 252 253 255 258
nan nan nan nan nan nan nan nan nan nan nan nan nan nan nan nan nan nan nan nan nan nan nan nan nan nan nan nan nan 240 241 241 242 244 245 248 251 251 256 255 251 248 246 252 252 253 251 245 242 239 237 238 246 246 251 259 265 268 270 274 274 270 271 271 274 277 283 281 280 282 279 272 271 269 266 265 266 264 263 263 264 263 260 260 259 259
nan nan nan nan nan nan nan nan nan nan nan nan nan nan nan nan nan nan nan nan nan nan nan nan nan nan nan nan nan 238 239 235 238 241 244 249 251 249 248 246 245 249 253 254 253 249 246 244 237 231 232 234 239 247 251 255 266 275 277 276 274 272 273 276 277 276 282 279 274 274 272 268 264 260 257 258 260 262 264 265 269 269 266 263 258 255
nan nan nan nan nan nan nan nan nan nan nan nan nan nan nan nan nan nan nan nan nan nan nan nan nan nan nan nan nan 235 235 232 233 234 232 234 239 240 240 239 243 250 258 259 254 244 235 230 225 226 232 234 235 244 248 262 275 277 277 275 275 277 281 280 281 281 286 282 276 266 261 262 258 259 256 256 257 262 266 267 265 263 263 261 254 251
nan nan nan nan nan nan nan nan nan nan nan nan nan nan nan nan nan nan nan nan nan nan nan nan nan nan nan nan nan nan nan 228 228 227 226 228 228 230 228 229 235 243 256 255 246 235 226 216 216 224 229 231 235 242 253 268 277 265 274 277 283 283 284 278 278 280 279 273 269 263 257 256 257 256 258 259 259 261 262 265 266 264 265 262 254 247
nan nan nan nan nan nan nan nan nan nan nan nan nan nan nan nan nan nan nan nan nan nan nan nan nan nan nan nan nan nan nan 228 228 228 228 230 231 232 233 233 236 237 246 253 240 233 223 210 217 222 227 234 235 243 254 267 269 264 276 281 277 276 273 272 274 274 271 270 274 272 269 267 262 262 265 267 266 267 264 265 264 262 261 259 252 246
nan nan nan nan nan nan nan nan nan nan nan nan nan nan nan nan nan nan nan nan nan nan nan nan nan nan nan nan nan nan nan nan 229 227 228 230 231 232 233 235 238 245 251 242 231 235 225 216 220 224 229 232 239 233 243 256 258 260 270 270 269 264 263 265 270 274 268 274 274 278 277 273 267 267 264 260 263 265 266 264 265 261 260 259 253 251
nan nan nan nan nan nan nan nan nan nan nan nan nan nan nan nan nan nan nan nan nan nan nan nan nan nan nan nan nan nan 233 nan 229 227 227 228 231 232 233 235 241 250 252 237 237 240 228 223 225 230 231 229 236 244 249 252 244 247 262 266 262 258 259 262 270 276 274 273 272 273 273 270 267 268 268 271 264 262 264 266 267 263 264 263 261 261
nan nan nan nan nan nan nan nan nan nan nan nan nan nan nan nan nan nan nan nan nan nan nan nan nan nan nan nan nan nan nan nan nan 228 227 229 231 232 234 237 243 247 240 235 237 236 222 219 225 232 236 236 256 265 267 265 272 257 245 245 251 259 260 262 269 270 269 268 273 275 272 268 258 269 273 272 268 267 268 268 267 268 267 263 260 262
nan nan nan nan nan nan nan nan nan nan nan nan nan nan nan nan nan nan nan nan nan nan nan nan nan nan nan nan nan nan nan nan nan 228 229 230 232 232 235 239 241 238 233 233 233 222 215 218 226 233 246 256 258 264 266 262 258 263 263 272 269 268 263 262 271 271 271 273 273 276 279 279 279 277 274 272 270 270 272 272 268 268 265 261 262 264
nan nan nan nan nan nan nan nan nan nan nan nan nan nan nan nan nan nan nan nan nan nan nan nan nan nan nan nan nan nan nan nan nan 225 227 231 231 231 232 236 238 237 235 230 223 214 211 222 234 240 252 263 272 274 279 272 271 267 274 274 270 266 266 275 282 282 278 268 271 282 286 288 288 287 285 281 278 274 271 269 266 265 263 261 265 nan
nan nan nan nan nan nan nan nan nan nan nan nan nan nan nan nan nan nan nan nan nan nan nan nan nan nan nan nan nan 228 nan nan nan 234 238 237 236 232 231 232 235 236 234 230 224 220 221 234 240 248 258 270 276 278 281 274 271 272 276 271 271 272 277 279 283 280 275 281 284 283 282 288 291 292 290 292 287 282 274 267 261 258 261 262 265 nan
nan nan nan nan nan nan nan nan nan nan nan nan nan nan nan nan nan nan nan nan nan nan nan nan nan nan nan nan nan nan nan nan nan 227 234 237 236 234 232 233 231 230 233 229 227 227 230 239 246 256 263 269 272 275 277 269 269 263 261 269 284 280 280 278 277 282 285 285 287 286 287 289 289 293 293 291 287 279 268 263 259 258 260 nan nan nan
nan nan nan nan nan nan nan nan nan nan nan nan nan nan nan nan nan nan nan nan nan nan nan nan nan nan nan nan nan nan nan nan nan nan nan 234 236 237 233 231 228 229 232 229 228 231 238 240 251 257 261 268 268 272 270 269 269 266 272 284 281 280 279 281 282 285 285 287 286 289 291 289 290 293 293 290 282 262 256 263 261 255 nan nan nan nan
nan nan nan nan nan nan nan nan nan nan nan nan nan nan nan nan nan nan nan nan nan nan nan nan nan nan nan nan nan nan 223 nan nan nan 222 225 226 226 223 222 224 228 232 229 228 232 239 245 253 256 261 264 267 269 265 267 270 269 274 276 283 285 287 288 288 288 290 286 286 286 292 292 290 292 289 288 277 261 259 260 256 250 nan nan nan nan
nan nan nan nan nan nan nan nan nan nan nan nan nan nan nan nan nan nan nan nan nan nan nan nan nan nan nan nan nan nan nan nan nan nan nan 219 219 222 221 221 222 226 231 229 230 233 243 250 253 260 262 267 267 269 265 271 268 270 273 276 280 280 285 285 283 285 285 282 281 290 294 293 290 287 285 281 266 259 257 255 248 nan nan nan nan 241
nan nan nan nan nan nan nan nan nan nan nan nan nan nan nan nan nan nan nan nan nan nan nan nan nan nan nan nan nan nan nan nan nan nan nan nan 219 221 220 221 223 225 227 229 231 236 245 249 254 261 268 264 264 265 264 267 268 270 272 275 279 280 280 281 281 283 282 281 285 291 293 292 293 291 287 280 271 258 253 247 244 245 244 243 nan 250
nan nan nan nan nan nan nan nan nan nan nan nan nan nan nan nan nan nan nan nan nan nan nan nan nan nan nan nan nan nan nan nan 216 215 218 221 222 222 219 221 224 227 229 234 235 236 240 246 252 255 261 262 266 268 267 269 268 268 269 275 275 273 279 281 281 282 283 283 287 291 291 289 292 292 282 276 268 260 256 249 246 248 249 254 258 257
nan nan nan nan nan nan nan nan nan nan nan nan nan nan nan nan nan nan nan nan nan nan nan nan nan nan nan nan nan nan nan nan nan 218 221 220 218 219 219 223 227 231 232 233 236 236 240 248 257 262 263 265 268 270 268 268 268 269 270 272 275 281 281 277 278 283 284 287 285 285 285 285 288 292 282 267 262 263 263 257 nan 257 262 263 nan nan
nan nan nan nan nan nan nan nan nan nan nan nan nan nan nan nan nan nan nan nan nan nan nan nan nan nan nan nan nan nan nan nan nan 218 220 218 218 218 218 224 230 235 236 238 240 242 250 259 265 265 265 267 269 269 268 270 267 275 277 277 280 279 279 283 281 277 285 289 286 281 nan 278 282 278 266 267 275 nan 270 266 266 265 265 263 nan nan
nan nan nan nan nan nan nan nan nan nan nan nan nan nan nan nan nan nan nan nan nan nan nan nan nan nan nan nan nan nan nan nan nan 219 217 213 214 218 221 225 231 237 239 241 242 246 255 259 263 269 266 265 268 265 266 267 270 274 275 276 280 282 280 280 280 282 285 287 281 282 nan nan 271 266 261 265 271 273 272 267 264 260 257 259 nan nan
nan nan nan nan nan nan nan nan nan nan nan nan nan nan nan nan nan nan nan nan nan nan nan nan nan nan nan nan nan nan nan nan nan 220 217 214 213 219 220 225 230 234 239 242 245 250 254 259 264 264 264 263 261 265 267 264 267 273 277 277 278 280 279 278 279 282 288 287 282 285 nan nan nan 263 265 267 270 273 268 259 257 260 262 262 nan nan
nan nan nan nan nan nan nan nan nan nan nan nan nan nan nan nan nan nan nan nan nan nan nan nan nan nan 224 nan nan nan nan nan nan nan 212 211 213 218 220 222 226 232 238 241 247 248 251 255 260 266 269 268 269 271 270 264 267 273 278 278 279 280 280 279 278 279 285 287 283 283 283 276 265 266 268 269 268 266 263 262 262 262 263 nan nan nan
nan nan nan nan nan nan nan nan nan nan nan nan nan nan nan nan nan nan nan nan nan nan nan nan nan nan 221 219 219 217 213 208 206 nan nan 209 214 219 221 222 227 232 235 237 238 240 246 254 257 261 263 266 268 269 269 265 265 271 277 277 278 280 279 275 273 275 280 282 281 279 273 271 269 275 275 274 nan 273 271 266 260 259 nan nan nan nan
nan nan nan nan nan nan nan nan nan nan nan nan nan nan nan nan nan nan nan nan nan nan nan nan nan nan 221 219 219 213 209 202 206 211 212 216 218 220 221 223 225 231 237 240 244 246 253 256 262 264 265 266 267 268 266 264 264 270 275 275 276 276 275 272 270 272 277 281 281 278 nan 272 nan 275 272 273 273 273 269 264 260 nan nan nan nan nan
nan nan nan nan nan nan nan nan nan nan nan nan nan nan nan nan nan nan nan nan nan nan nan nan nan nan 229 226 nan 219 208 199 200 209 212 212 218 221 221 224 227 231 235 241 243 251 258 259 261 262 264 266 267 266 266 264 264 269 273 274 273 274 270 272 273 276 279 281 281 275 266 271 276 nan 276 272 271 nan 267 262 262 nan nan nan nan nan
159 158 156 nan nan nan nan nan nan nan nan nan nan nan nan nan nan nan nan nan nan nan nan nan nan nan 228 225 228 218 204 201 205 209 215 215 218 222 224 225 227 228 231 238 241 241 251 258 266 269 270 268 268 265 264 264 265 268 270 271 271 270 270 273 275 279 280 278 280 277 275 274 274 273 273 273 273 270 269 nan nan nan nan nan nan nan
154 155 165 nan nan nan nan nan nan nan nan nan nan nan nan nan nan nan nan nan nan nan nan nan nan nan nan nan 212 207 198 199 204 206 208 215 219 222 225 225 226 222 226 234 241 253 260 265 268 272 270 268 266 265 262 263 266 269 270 271 269 268 268 271 276 276 278 280 275 277 275 270 269 270 272 271 273 274 274 nan nan nan nan nan nan nan
157 nan nan nan nan nan nan nan nan nan nan nan nan nan nan nan nan nan nan nan nan nan nan nan nan nan nan nan nan 193 193 193 200 203 203 206 213 217 219 218 218 220 228 238 246 254 267 270 269 268 267 265 264 266 267 265 267 268 270 270 270 266 271 277 281 282 283 286 277 273 272 270 265 265 271 275 276 nan nan nan nan nan nan 285 287 286
nan 166 170 nan nan nan nan nan nan nan nan nan nan nan nan nan nan nan nan nan nan nan nan nan nan nan nan nan nan 189 190 194 198 198 200 204 207 209 205 203 208 218 231 241 254 266 270 267 261 262 265 267 269 269 268 265 268 269 270 271 269 269 272 277 278 277 278 274 270 272 274 273 272 274 275 nan nan nan nan nan nan nan 286 288 288 289
nan nan nan nan nan nan nan nan nan nan nan nan nan nan nan nan nan nan nan nan nan nan nan nan nan nan nan 192 190 192 194 194 195 191 193 198 197 195 193 196 208 223 238 251 260 265 265 262 265 267 268 270 273 272 269 267 267 268 267 264 269 266 272 271 269 267 266 266 268 272 276 278 280 281 nan nan nan nan nan nan nan nan nan nan nan 291
nan nan nan nan nan nan nan nan nan nan nan nan nan nan nan nan nan nan nan nan nan nan nan nan nan nan 176 191 192 189 189 187 185 187 191 190 187 186 188 200 215 231 251 261 265 261 263 266 274 276 273 276 277 277 272 270 268 271 264 267 266 265 268 267 269 269 269 273 276 279 282 281 284 285 nan nan nan nan nan nan nan nan nan nan nan 294
nan 157 nan nan nan nan nan nan nan nan nan nan nan nan nan nan nan nan nan nan nan nan nan nan nan nan 181 181 179 187 182 180 180 184 184 182 180 180 190 205 219 236 253 260 262 260 261 267 269 273 275 274 271 276 281 280 277 277 278 277 276 275 275 273 274 274 276 279 282 284 284 285 287 289 289 nan nan 294 294 nan nan nan nan nan 296 296
nan nan nan nan nan nan nan nan nan nan nan nan nan nan nan nan nan nan nan nan nan nan nan nan nan 167 177 176 175 180 176 176 178 180 177 177 177 183 194 207 219 232 233 227 236 250 250 246 251 261 272 269 274 274 276 285 283 280 283 279 283 292 285 280 277 278 281 284 286 286 287 288 290 292 295 296 nan nan nan nan nan nan nan nan 297 299
nan nan nan nan nan nan nan nan nan nan nan 202 nan nan nan nan nan nan nan nan nan nan nan nan nan nan 172 174 178 180 179 180 178 177 176 179 182 189 198 209 224 233 227 223 234 243 251 259 268 272 278 279 277 275 277 279 284 281 279 277 281 289 286 282 280 279 281 284 285 287 289 293 294 297 298 298 nan nan nan nan nan nan 297 297 298 298
nan nan nan nan nan nan nan nan nan nan 203 202 nan nan nan nan nan nan nan nan nan nan nan nan nan nan 174 176 178 181 179 181 177 174 176 185 189 196 200 210 230 231 229 226 241 252 264 270 275 280 282 280 282 282 281 284 281 276 273 273 276 281 283 283 281 281 280 281 284 286 287 291 294 294 294 295 295 nan nan nan 295 294 290 290 nan nan
nan nan nan nan nan nan nan nan nan 202 206 nan nan nan nan nan nan nan nan nan nan nan nan nan nan 161 174 178 177 179 182 180 177 179 180 185 195 198 201 210 221 224 225 231 241 254 262 264 271 279 280 281 282 283 282 279 277 273 271 273 275 281 282 281 280 280 280 281 283 284 286 289 291 nan 293 293 nan nan nan 289 288 287 289 nan nan nan
nan nan nan nan nan nan nan nan nan nan nan 202 204 nan nan 200 200 nan nan nan nan nan nan nan nan 161 173 177 177 182 182 180 180 184 187 185 193 200 210 221 227 230 235 240 249 259 265 267 274 282 281 283 285 282 274 274 274 272 273 276 278 279 279 279 279 279 280 281 282 285 286 287 289 290 291 292 293 nan nan nan nan nan nan nan nan nan
nan nan nan nan nan nan nan nan nan nan nan 196 206 nan 202 199 199 205 nan nan 202 179 176 nan nan 164 172 179 181 183 181 184 189 193 199 190 197 205 217 226 234 242 248 254 261 267 268 277 285 288 287 283 285 275 271 275 278 277 276 274 276 276 275 274 273 276 280 282 283 283 282 283 285 287 290 292 291 288 289 289 nan nan nan nan nan nan
nan nan nan nan nan nan nan nan nan nan 194 195 197 196 nan 194 200 203 nan nan 207 186 179 172 168 174 178 183 183 179 179 192 193 197 198 203 203 212 221 232 242 251 258 263 268 272 278 283 284 283 284 285 282 277 274 273 274 277 277 276 275 276 276 274 274 275 276 nan nan 280 280 282 283 nan 286 288 287 288 290 291 291 nan nan nan nan nan
nan nan nan nan nan nan nan nan nan 197 197 194 188 184 nan nan 189 nan nan 199 201 193 184 176 174 178 181 184 184 181 187 195 194 193 188 209 217 223 227 236 245 253 262 268 271 273 277 277 276 276 288 294 292 285 281 274 272 273 275 280 281 283 281 277 273 274 274 275 277 278 280 281 285 288 288 288 289 291 292 293 293 nan nan nan nan nan
nan nan nan nan nan nan nan nan nan 196 nan 177 185 nan nan nan nan nan 199 182 184 193 191 183 182 182 177 178 180 185 195 195 192 198 207 215 221 232 237 242 248 254 259 265 266 273 275 271 268 275 289 296 296 289 284 281 278 277 278 281 286 287 279 276 275 270 269 274 277 277 277 278 281 286 288 289 nan nan nan nan nan nan nan nan nan nan
nan nan nan nan nan nan nan nan nan 192 190 184 172 nan nan 184 195 193 185 195 186 188 191 194 189 192 188 192 195 200 202 204 202 208 215 218 224 233 241 245 250 257 263 265 272 274 269 266 267 274 287 291 294 289 286 287 285 282 281 285 288 280 278 276 274 274 273 272 273 271 nan 276 282 286 289 291 292 nan nan nan nan nan nan nan nan nan
nan nan nan nan nan nan nan nan nan 180 178 183 178 190 193 195 192 193 188 199 197 191 189 195 195 196 197 200 208 208 209 214 217 215 217 219 224 231 238 247 254 259 262 266 270 270 269 264 264 269 283 287 290 290 289 288 284 282 283 286 282 277 275 274 274 275 272 267 267 268 271 nan 284 290 292 295 294 nan nan 291 292 nan nan nan nan nan
nan nan nan nan nan nan nan nan 186 179 183 186 184 194 193 192 193 195 196 198 198 199 188 187 196 197 196 198 205 207 210 215 223 223 223 224 227 232 241 252 258 260 260 266 272 270 267 266 267 269 282 288 290 289 292 290 287 286 285 283 282 276 275 275 274 272 271 270 269 271 274 279 285 290 nan nan nan nan 291 nan nan nan nan nan nan nan
nan nan nan nan nan 174 172 171 174 179 189 190 194 194 194 195 199 198 201 204 204 200 195 192 191 196 199 197 207 208 209 216 221 224 229 232 233 236 242 251 258 263 269 274 277 275 267 265 269 275 284 287 291 288 290 289 286 286 284 281 280 279 278 278 275 271 269 269 271 275 277 280 nan nan nan nan nan nan nan nan nan nan nan nan nan nan
nan nan 205 180 183 178 195 193 180 184 187 184 193 201 205 200 203 203 208 209 207 204 203 202 198 198 199 202 205 213 218 218 222 224 228 233 236 239 243 251 255 265 273 281 279 279 275 274 274 278 283 286 289 287 287 286 279 277 278 281 281 278 276 276 276 275 275 275 274 273 275 nan nan nan nan nan nan nan nan nan nan nan nan nan nan nan
216 nan 190 202 183 nan 201 194 190 191 190 190 190 202 205 204 205 209 210 212 212 211 209 208 208 213 209 209 208 213 220 222 224 228 230 232 234 237 242 250 258 264 268 272 274 280 277 278 279 281 283 283 284 284 283 281 277 277 279 279 279 277 274 273 272 275 278 nan nan nan nan nan nan nan nan nan 284 nan nan nan nan nan nan nan nan nan
177 nan 187 208 195 195 205 201 194 193 203 204 203 204 202 197 197 209 212 215 217 219 219 219 216 217 218 219 215 216 221 223 224 229 234 235 237 239 243 249 256 261 265 268 273 276 274 277 278 280 281 279 280 281 282 282 280 281 279 279 278 278 278 277 278 277 280 284 nan nan nan nan nan nan nan nan nan nan nan nan nan nan nan nan nan nan
124 134 187 188 196 nan 211 221 210 205 206 207 207 201 192 191 195 207 210 213 213 215 217 224 225 223 224 222 222 223 225 227 226 228 235 239 241 245 249 251 254 259 264 265 269 274 274 277 277 278 278 276 278 280 281 283 283 286 286 284 282 282 281 280 281 282 286 289 290 nan nan nan nan nan nan 281 nan nan nan nan nan nan nan nan nan nan
nan 187 168 180 nan nan 207 204 202 203 206 205 207 198 181 180 194 207 208 209 212 215 215 218 226 229 228 226 222 224 227 230 232 231 235 239 244 247 251 257 260 260 261 266 271 274 274 277 278 277 276 275 278 280 282 283 285 288 289 288 287 286 283 283 281 285 286 287 nan nan nan nan nan nan nan nan nan nan nan nan nan nan nan nan nan nan